Regional Weather Roundup
Issued by NWS

Home | Current Version | Previous Version | Text Only | Print | Product List | Glossary On
Versions: 1 2 3 4 5 6 7 8 9 10 11 12 13 14 15 16 17 18 19 20 21 22 23 24 25 26 27 28 29 30 31 32 33 34 35 36 37 38 39 40 41 42 43 44 45 46 47 48 49 50
000
ASUS44 KBMX 250410
RWRAL

ALABAMA REGIONAL WEATHER ROUNDUP
NATIONAL WEATHER SERVICE BIRMINGHAM AL
1000 PM CST WED DEC 24 2014

NOTE: "FAIR" INDICATES FEW OR NO CLOUDS BELOW 12,000 FEET
WITH NO SIGNIFICANT WEATHER AND/OR OBSTRUCTIONS TO VISIBILITY.

THE REMARK "TC" DENOTES TEMPERATURE IN DEGREES CELSIUS.

ALZ001>011-014-016>018-020-250500-
NORTH ALABAMA

CITY           SKY/WX    TMP DP  RH WIND       PRES   REMARKS
MUSCLE SHOALS  CLOUDY    44  35  70 W12       29.97R
HUNTSVILLE     CLOUDY    44  37  76 W9        29.95R
DECATUR        CLOUDY    43  36  76 W12       29.96R
HALEYVILLE     MOCLDY    39  35  85 W3        29.99R
GADSDEN        CLOUDY    45  36  70 W7        29.95R
$$

ALZ012-013-022-023-030>036-040>044-250500-
WEST CENTRAL ALABAMA

CITY           SKY/WX    TMP DP  RH WIND       PRES   REMARKS
TUSCALOOSA     PTCLDY    44  36  73 W8        30.03R
$$

ALZ015-024>027-033>036-040>044-250500-
CENTRAL ALABAMA

CITY           SKY/WX    TMP DP  RH WIND       PRES   REMARKS
BIRMINGHAM     CLOUDY    44  38  79 W10       30.00R
MONTGOMERY     CLOUDY    49  35  58 W20       30.02R
SHELBY CO ARPT CLOUDY    46  38  73 W9        30.00R
MAXWELL AFB    CLOUDY    49  37  64 VRB7      30.01R
GREENVILLE     FAIR      48  35  60 NW9       30.01R
$$

ALZ019-021-028-029-037-038-045>048-250500-
EAST CENTRAL ALABAMA

CITY           SKY/WX    TMP DP  RH WIND       PRES   REMARKS
ANNISTON       CLOUDY    46  36  68 W10       29.97R
ALEXANDER CITY CLOUDY    49  39  68 W8        29.98R
AUBURN         CLOUDY    45  39  81 W8        29.98R
$$

ALZ051>064-250500-
SOUTHWEST ALABAMA

CITY           SKY/WX    TMP DP  RH WIND       PRES   REMARKS
MOBILE         MOCLDY    44  35  70 NW8       30.08R
BROOKLEY FIELD CLOUDY    47  35  63 NW7       30.08R
EVERGREEN      CLOUDY    50  41  71 VRB5      30.04R
$$

ALZ049-050-065>069-250500-
SOUTHEAST ALABAMA

CITY           SKY/WX    TMP DP  RH WIND       PRES   REMARKS
DOTHAN         CLOUDY    51  46  83 W9        30.01R
OZARK          CLOUDY    51  45  79 W8        30.01R
TROY           CLOUDY    50  42  74 W7        30.00R
EUFAULA        MOCLDY    51  46  83 SW3       29.97R
$$


USA.gov is the U.S. government's official web portal to all federal, state and local government web resources and services.